When you browse on this site, cookies collect data to enhance your experience and personalize the content and advertising you see.
Visit our Privacy Policy to learn more. By continuing to use the site, you agree to this use of cookies and data.
  • In Romania
  • List of Countries
  • For 7 days
  • Water Temperature
  • Satellite Maps
  • Weather Map
  • Weather Widgets
  • user-avatar
    Login

    Hourly Weather Arona

    Today, 21 July, Sunday

    Time Temperature Precipitation Wind Pressure Humidity
    00:00 +23°C° 0 mm 1 mps 739 mmHg 80%
    01:00 +23°C° 0 mm 1 mps 739 mmHg 82%
    02:00 +22°C° 0.1 mm 1 mps 739 mmHg 82%
    03:00 +22°C° 0.1 mm 1 mps 739 mmHg 82%
    04:00 +22°C° 0.1 mm 1 mps 739 mmHg 82%
    05:00 +22°C° 0.3 mm 1 mps 739 mmHg 82%
    06:00 +23°C° 0.3 mm 1 mps 739 mmHg 82%
    07:00 +24°C° 0 mm 1 mps 740 mmHg 80%
    08:00 +26°C° 0.1 mm 1 mps 740 mmHg 72%
    09:00 +28°C° 0.1 mm 1 mps 740 mmHg 65%
    10:00 +30°C° 0.1 mm 1 mps 740 mmHg 57%
    11:00 +31°C° 0 mm 1 mps 740 mmHg 54%
    12:00 +32°C° 0 mm 1 mps 740 mmHg 51%
    13:00 +33°C° 0 mm 1 mps 740 mmHg 48%
    14:00 +33°C° 0.2 mm 1 mps 740 mmHg 49%
    15:00 +33°C° 0.2 mm 1 mps 740 mmHg 50%
    16:00 +33°C° 0.2 mm 1 mps 740 mmHg 51%
    17:00 +31°C° 0.2 mm 1 mps 740 mmHg 59%
    18:00 +30°C° 0.2 mm 1 mps 740 mmHg 66%
    19:00 +29°C° 0.2 mm 1 mps 739 mmHg 74%
    20:00 +27°C° 0 mm 1 mps 740 mmHg 76%
    21:00 +26°C° 0 mm 1 mps 741 mmHg 79%
    22:00 +24°C° 0 mm 1 mps 741 mmHg 82%
    23:00 +24°C° 0.1 mm 1 mps 741 mmHg 82%

    Tomorrow, 22 July, Monday

    Time Temperature Precipitation Wind Pressure Humidity
    00:00 +23°C° 0.1 mm 1 mps 741 mmHg 82%
    01:00 +21°C° 0.1 mm 2 mps 742 mmHg 81%
    02:00 +21°C° 0 mm 2 mps 741 mmHg 80%
    03:00 +21°C° 0 mm 2 mps 741 mmHg 79%
    04:00 +21°C° 0 mm 2 mps 741 mmHg 77%
    05:00 +23°C° 0 mm 1 mps 741 mmHg 75%
    06:00 +24°C° 0 mm 1 mps 741 mmHg 73%
    07:00 +24°C° 0 mm 1 mps 741 mmHg 72%
    08:00 +27°C° 0 mm 1 mps 742 mmHg 66%
    09:00 +29°C° 0 mm 1 mps 742 mmHg 60%
    10:00 +29°C° 0 mm 0 mps 742 mmHg 54%
    11:00 +32°C° 0 mm 1 mps 741 mmHg 52%
    12:00 +32°C° 0 mm 1 mps 741 mmHg 50%
    13:00 +33°C° 0 mm 1 mps 741 mmHg 47%
    14:00 +34°C° 0 mm 2 mps 741 mmHg 48%
    15:00 +34°C° 0 mm 2 mps 741 mmHg 49%
    16:00 +34°C° 0 mm 2 mps 741 mmHg 50%
    17:00 +32°C° 0.1 mm 2 mps 741 mmHg 58%
    18:00 +30°C° 0.1 mm 1 mps 741 mmHg 66%
    19:00 +29°C° 0.1 mm 1 mps 740 mmHg 73%
    20:00 +28°C° 0 mm 1 mps 741 mmHg 75%
    21:00 +27°C° 0 mm 1 mps 741 mmHg 78%
    22:00 +26°C° 0 mm 1 mps 741 mmHg 80%
    23:00 +26°C° 0 mm 1 mps 741 mmHg 80%

    Day after tomorrow, 23 July, Tuesday

    Time Temperature Precipitation Wind Pressure Humidity
    00:00 +25°C° 0 mm 1 mps 741 mmHg 80%
    01:00 +25°C° 0 mm 1 mps 741 mmHg 80%
    02:00 +25°C° 0 mm 1 mps 740 mmHg 79%
    03:00 +24°C° 0 mm 1 mps 740 mmHg 79%
    04:00 +24°C° 0 mm 1 mps 740 mmHg 78%
    05:00 +25°C° 0 mm 1 mps 740 mmHg 77%
    06:00 +26°C° 0 mm 1 mps 740 mmHg 75%
    07:00 +26°C° 0 mm 1 mps 740 mmHg 74%
    08:00 +28°C° 0 mm 1 mps 740 mmHg 68%
    09:00 +30°C° 0 mm 1 mps 740 mmHg 62%
    10:00 +32°C° 0 mm 1 mps 740 mmHg 57%
    11:00 +32°C° 0 mm 1 mps 740 mmHg 55%
    12:00 +34°C° 0 mm 2 mps 739 mmHg 53%
    13:00 +35°C° 0 mm 2 mps 739 mmHg 51%
    14:00 +34°C° 0.2 mm 2 mps 739 mmHg 53%
    15:00 +34°C° 0.2 mm 2 mps 739 mmHg 55%
    16:00 +34°C° 0.2 mm 2 mps 738 mmHg 57%
    17:00 +32°C° 0.1 mm 1 mps 738 mmHg 62%
    18:00 +31°C° 0.1 mm 1 mps 738 mmHg 66%
    19:00 +30°C° 0.1 mm 1 mps 738 mmHg 71%
    20:00 +29°C° 0.1 mm 1 mps 738 mmHg 73%
    21:00 +28°C° 0.1 mm 1 mps 739 mmHg 76%
    22:00 +26°C° 0.1 mm 1 mps 739 mmHg 78%
    23:00 +26°C° 0 mm 1 mps 739 mmHg 79%

    24 July, Wednesday

    Time Temperature Precipitation Wind Pressure Humidity
    00:00 +26°C° 0 mm 1 mps 739 mmHg 80%
    01:00 +25°C° 0 mm 1 mps 739 mmHg 81%
    02:00 +25°C° 0 mm 1 mps 739 mmHg 81%
    03:00 +25°C° 0 mm 1 mps 738 mmHg 81%
    04:00 +24°C° 0 mm 1 mps 738 mmHg 82%
    05:00 +25°C° 0 mm 1 mps 738 mmHg 80%
    06:00 +26°C° 0 mm 1 mps 738 mmHg 78%
    07:00 +25°C° 0 mm 0 mps 738 mmHg 76%
    08:00 +28°C° 0 mm 1 mps 738 mmHg 69%
    09:00 +30°C° 0 mm 1 mps 738 mmHg 62%
    10:00 +32°C° 0 mm 1 mps 738 mmHg 55%
    11:00 +32°C° 0 mm 1 mps 738 mmHg 54%
    12:00 +34°C° 0 mm 2 mps 738 mmHg 52%
    13:00 +34°C° 0 mm 2 mps 738 mmHg 51%
    14:00 +34°C° 0 mm 2 mps 738 mmHg 51%
    15:00 +35°C° 0 mm 2 mps 737 mmHg 51%
    16:00 +35°C° 0 mm 2 mps 737 mmHg 51%
    17:00 +33°C° 0 mm 1 mps 737 mmHg 57%
    18:00 +31°C° 0 mm 1 mps 737 mmHg 63%
    19:00 +30°C° 0 mm 1 mps 737 mmHg 69%
    20:00 +29°C° 0 mm 1 mps 737 mmHg 73%
    21:00 +28°C° 0 mm 1 mps 737 mmHg 76%
    22:00 +27°C° 0 mm 1 mps 738 mmHg 79%
    23:00 +26°C° 0 mm 1 mps 738 mmHg 80%

    25 July, Thursday

    Time Temperature Precipitation Wind Pressure Humidity
    00:00 +26°C° 0 mm 1 mps 738 mmHg 80%
    01:00 +26°C° 0 mm 1 mps 738 mmHg 80%
    02:00 +25°C° 0 mm 1 mps 737 mmHg 80%
    03:00 +25°C° 0 mm 1 mps 737 mmHg 80%
    04:00 +25°C° 0 mm 1 mps 737 mmHg 80%
    05:00 +25°C° 0 mm 1 mps 737 mmHg 78%
    06:00 +26°C° 0 mm 1 mps 737 mmHg 77%
    07:00 +27°C° 0 mm 1 mps 738 mmHg 75%
    08:00 +29°C° 0 mm 1 mps 738 mmHg 67%
    09:00 +30°C° 0 mm 1 mps 738 mmHg 59%
    10:00 +32°C° 0 mm 1 mps 738 mmHg 51%
    11:00 +33°C° 0 mm 1 mps 737 mmHg 49%
    12:00 +34°C° 0 mm 1 mps 737 mmHg 47%
    13:00 +35°C° 0 mm 2 mps 737 mmHg 45%
    14:00 +35°C° 0 mm 2 mps 736 mmHg 45%
    15:00 +35°C° 0 mm 2 mps 736 mmHg 46%
    16:00 +35°C° 0 mm 2 mps 736 mmHg 47%
    17:00 +34°C° 0.1 mm 2 mps 736 mmHg 54%
    18:00 +31°C° 0.1 mm 1 mps 736 mmHg 60%
    19:00 +30°C° 0.1 mm 1 mps 736 mmHg 67%
    20:00 +29°C° 0 mm 1 mps 736 mmHg 70%
    21:00 +28°C° 0 mm 1 mps 736 mmHg 72%
    22:00 +27°C° 0 mm 1 mps 737 mmHg 75%
    23:00 +26°C° 0 mm 1 mps 737 mmHg 75%

    26 July, Friday

    Time Temperature Precipitation Wind Pressure Humidity
    00:00 +26°C° 0 mm 1 mps 737 mmHg 75%
    01:00 +25°C° 0 mm 1 mps 737 mmHg 75%
    02:00 +25°C° 0 mm 1 mps 736 mmHg 75%
    03:00 +25°C° 0 mm 1 mps 736 mmHg 75%
    04:00 +24°C° 0 mm 2 mps 736 mmHg 75%
    05:00 +25°C° 0 mm 1 mps 736 mmHg 74%
    06:00 +26°C° 0 mm 1 mps 736 mmHg 73%
    07:00 +26°C° 0 mm 1 mps 736 mmHg 72%
    08:00 +28°C° 0.1 mm 1 mps 736 mmHg 66%
    09:00 +30°C° 0.1 mm 1 mps 736 mmHg 59%
    10:00 +32°C° 0.1 mm 1 mps 736 mmHg 53%
    11:00 +32°C° 0.6 mm 1 mps 735 mmHg 52%
    12:00 +34°C° 0.6 mm 2 mps 735 mmHg 50%
    13:00 +34°C° 0.6 mm 2 mps 735 mmHg 48%
    14:00 +34°C° 0.4 mm 2 mps 735 mmHg 48%
    15:00 +35°C° 0.4 mm 2 mps 735 mmHg 48%
    16:00 +35°C° 0.4 mm 2 mps 735 mmHg 48%
    17:00 +32°C° 0.5 mm 1 mps 735 mmHg 55%
    18:00 +31°C° 0.5 mm 1 mps 735 mmHg 62%
    19:00 +30°C° 0.5 mm 1 mps 735 mmHg 68%
    20:00 +28°C° 1.8 mm 1 mps 735 mmHg 74%
    21:00 +26°C° 1.8 mm 1 mps 735 mmHg 80%
    22:00 +24°C° 1.8 mm 2 mps 735 mmHg 85%
    23:00 +23°C° 1.9 mm 2 mps 735 mmHg 86%
    Show more